Time,TemperatureF,DewpointF,PressureIn,WindDirection,WindDirectionDegrees,WindSpeedMPH,WindSpeedGustMPH,Humidity,HourlyPrecipIn,Conditions,Clouds,dailyrainin,SoftwareType,DateUTC
2013-02-10 00:00:00,12.6,9.5,30.14,WSW,247,5.0,13.0,87,0.00,,,-99.99,WeatherLink 5.7,2013-02-10 05:00:00,
2013-02-10 00:10:00,12.6,9.5,30.14,West,270,3.0,7.0,87,0.00,,,-99.99,WeatherLink 5.7,2013-02-10 05:10:00,
2013-02-10 00:15:00,12.6,9.5,30.14,West,270,4.0,8.0,87,0.00,,,-99.99,WeatherLink 5.7,2013-02-10 05:15:00,
2013-02-10 00:25:00,12.6,9.5,30.14,WNW,292,3.0,8.0,87,0.00,,,-99.99,WeatherLink 5.7,2013-02-10 05:25:00,
2013-02-10 00:30:00,12.6,9.5,30.14,West,270,3.0,8.0,87,0.00,,,-99.99,WeatherLink 5.7,2013-02-10 05:30:00,
2013-02-10 00:35:00,12.6,9.5,30.14,WNW,292,4.0,8.0,87,0.00,,,-99.99,WeatherLink 5.7,2013-02-10 05:35:00,
2013-02-10 00:40:00,12.6,9.5,30.14,WNW,292,3.0,7.0,87,0.00,,,-99.99,WeatherLink 5.7,2013-02-10 05:40:00,
2013-02-10 00:50:00,12.6,9.5,30.14,West,270,4.0,8.0,87,0.00,,,-99.99,WeatherLink 5.7,2013-02-10 05:50:00,
2013-02-10 01:00:00,12.8,9.7,30.15,West,270,4.0,12.0,87,0.00,,,-99.99,WeatherLink 5.7,2013-02-10 06:00:00,
2013-02-10 01:10:00,12.8,9.7,30.15,WNW,292,3.0,12.0,87,0.00,,,-99.99,WeatherLink 5.7,2013-02-10 06:10:00,
2013-02-10 01:15:00,12.8,9.7,30.15,WNW,292,4.0,10.0,87,0.00,,,-99.99,WeatherLink 5.7,2013-02-10 06:15:00,
2013-02-10 01:20:00,12.9,9.8,30.15,NW,315,4.0,18.0,87,0.00,,,-99.99,WeatherLink 5.7,2013-02-10 06:20:00,
2013-02-10 01:30:00,13.1,10.0,30.15,WNW,292,5.0,13.0,87,0.00,,,-99.99,WeatherLink 5.7,2013-02-10 06:30:00,
2013-02-10 01:35:00,13.1,10.0,30.15,West,270,5.0,14.0,87,0.00,,,-99.99,WeatherLink 5.7,2013-02-10 06:35:00,
2013-02-10 01:45:00,13.3,10.2,30.16,WNW,292,4.0,10.0,87,0.00,,,-99.99,WeatherLink 5.7,2013-02-10 06:45:00,
2013-02-10 01:55:00,13.3,10.2,30.16,WNW,292,5.0,12.0,87,0.00,,,-99.99,WeatherLink 5.7,2013-02-10 06:55:00,
2013-02-10 02:05:00,13.5,10.6,30.17,WNW,292,5.0,8.0,88,0.00,,,-99.99,WeatherLink 5.7,2013-02-10 07:05:00,
2013-02-10 02:15:00,13.5,10.6,30.17,West,270,4.0,6.0,88,0.00,,,-99.99,WeatherLink 5.7,2013-02-10 07:15:00,
2013-02-10 02:20:00,13.5,10.4,30.17,West,270,4.0,10.0,87,0.00,,,-99.99,WeatherLink 5.7,2013-02-10 07:20:00,
2013-02-10 02:30:00,13.3,10.2,30.18,WNW,292,3.0,7.0,87,0.00,,,-99.99,WeatherLink 5.7,2013-02-10 07:30:00,
2013-02-10 02:40:00,13.1,10.0,30.18,WNW,292,1.0,5.0,87,0.00,,,-99.99,WeatherLink 5.7,2013-02-10 07:40:00,
2013-02-10 02:45:00,12.9,9.8,30.17,NW,315,1.0,3.0,87,0.00,,,-99.99,WeatherLink 5.7,2013-02-10 07:45:00,
2013-02-10 02:55:00,12.6,9.5,30.17,WNW,292,1.0,3.0,87,0.00,,,-99.99,WeatherLink 5.7,2013-02-10 07:55:00,
2013-02-10 03:05:00,12.3,9.2,30.18,WNW,292,2.0,5.0,87,0.00,,,-99.99,WeatherLink 5.7,2013-02-10 08:05:00,
2013-02-10 03:15:00,11.7,8.6,30.18,WSW,247,1.0,3.0,87,0.00,,,-99.99,WeatherLink 5.7,2013-02-10 08:15:00,
2013-02-10 03:25:00,11.2,7.8,30.18,WSW,247,1.0,2.0,86,0.00,,,-99.99,WeatherLink 5.7,2013-02-10 08:25:00,
2013-02-10 03:31:00,10.9,7.5,30.19,WSW,247,1.0,3.0,86,0.00,,,-99.99,WeatherLink 5.7,2013-02-10 08:31:00,
2013-02-10 03:40:00,10.4,7.0,30.19,North,-999,0.0,0.0,86,0.00,,,-99.99,WeatherLink 5.7,2013-02-10 08:40:00,
2013-02-10 03:50:00,9.9,6.6,30.19,WSW,247,1.0,2.0,86,0.00,,,-99.99,WeatherLink 5.7,2013-02-10 08:50:00,
2013-02-10 04:00:00,9.2,5.6,30.19,WSW,247,2.0,3.0,85,0.00,,,-99.99,WeatherLink 5.7,2013-02-10 09:00:00,
2013-02-10 04:10:00,8.4,4.8,30.19,WSW,247,0.0,2.0,85,0.00,,,-99.99,WeatherLink 5.7,2013-02-10 09:10:00,
2013-02-10 04:20:00,7.9,4.3,30.20,North,-999,0.0,0.0,85,0.00,,,-99.99,WeatherLink 5.7,2013-02-10 09:20:00,
2013-02-10 04:30:00,7.7,4.1,30.20,WNW,292,0.0,4.0,85,0.00,,,-99.99,WeatherLink 5.7,2013-02-10 09:30:00,
2013-02-10 04:40:00,7.6,4.0,30.20,West,270,1.0,2.0,85,0.00,,,-99.99,WeatherLink 5.7,2013-02-10 09:40:00,
2013-02-10 04:50:00,7.4,3.8,30.21,West,270,0.0,2.0,85,0.00,,,-99.99,WeatherLink 5.7,2013-02-10 09:50:00,
2013-02-10 05:00:00,7.4,3.8,30.21,West,270,0.0,2.0,85,0.00,,,-99.99,WeatherLink 5.7,2013-02-10 10:00:00,
2013-02-10 05:05:00,7.4,3.8,30.21,West,270,1.0,3.0,85,0.00,,,-99.99,WeatherLink 5.7,2013-02-10 10:05:00,
2013-02-10 05:15:00,7.2,3.4,30.22,West,270,1.0,3.0,84,0.00,,,-99.99,WeatherLink 5.7,2013-02-10 10:15:00,
2013-02-10 05:20:00,7.0,3.2,30.22,West,270,1.0,3.0,84,0.00,,,-99.99,WeatherLink 5.7,2013-02-10 10:20:00,
2013-02-10 05:30:00,6.7,2.9,30.23,West,270,1.0,3.0,84,0.00,,,-99.99,WeatherLink 5.7,2013-02-10 10:30:00,
2013-02-10 05:40:00,6.5,2.7,30.23,West,270,0.0,3.0,84,0.00,,,-99.99,WeatherLink 5.7,2013-02-10 10:40:00,
2013-02-10 05:50:00,6.9,3.1,30.24,North,-999,0.0,0.0,84,0.00,,,-99.99,WeatherLink 5.7,2013-02-10 10:50:00,
2013-02-10 06:00:00,7.0,3.4,30.24,North,-999,0.0,0.0,85,0.00,,,-99.99,WeatherLink 5.7,2013-02-10 11:00:00,
2013-02-10 06:10:00,7.0,3.2,30.24,West,270,0.0,1.0,84,0.00,,,-99.99,WeatherLink 5.7,2013-02-10 11:10:00,
2013-02-10 06:20:00,6.5,2.7,30.24,West,270,0.0,1.0,84,0.00,,,-99.99,WeatherLink 5.7,2013-02-10 11:20:00,
2013-02-10 06:25:00,6.3,2.5,30.24,North,-999,0.0,0.0,84,0.00,,,-99.99,WeatherLink 5.7,2013-02-10 11:25:00,
2013-02-10 06:35:00,6.3,2.5,30.25,North,-999,0.0,0.0,84,0.00,,,-99.99,WeatherLink 5.7,2013-02-10 11:35:00,
2013-02-10 06:40:00,6.3,2.5,30.25,North,-999,0.0,0.0,84,0.00,,,-99.99,WeatherLink 5.7,2013-02-10 11:40:00,
2013-02-10 06:50:00,6.3,2.5,30.26,North,-999,0.0,0.0,84,0.00,,,-99.99,WeatherLink 5.7,2013-02-10 11:50:00,
2013-02-10 07:00:00,6.3,2.5,30.27,West,270,0.0,3.0,84,0.00,,,-99.99,WeatherLink 5.7,2013-02-10 12:00:00,
2013-02-10 07:10:00,6.5,2.7,30.27,West,270,1.0,2.0,84,0.00,,,-99.99,WeatherLink 5.7,2013-02-10 12:10:00,
2013-02-10 07:15:00,6.7,3.1,30.28,West,270,1.0,2.0,85,0.00,,,-99.99,WeatherLink 5.7,2013-02-10 12:15:00,
2013-02-10 07:20:00,7.0,3.4,30.28,West,270,2.0,3.0,85,0.00,,,-99.99,WeatherLink 5.7,2013-02-10 12:20:00,
2013-02-10 07:30:00,7.7,4.1,30.28,West,270,2.0,2.0,85,0.00,,,-99.99,WeatherLink 5.7,2013-02-10 12:30:00,
2013-02-10 07:35:00,8.3,4.7,30.28,West,270,0.0,2.0,85,0.00,,,-99.99,WeatherLink 5.7,2013-02-10 12:35:00,
2013-02-10 07:45:00,9.5,6.2,30.29,North,-999,0.0,0.0,86,0.00,,,-99.99,WeatherLink 5.7,2013-02-10 12:45:00,
2013-02-10 07:55:00,11.2,8.1,30.29,North,-999,0.0,0.0,87,0.00,,,-99.99,WeatherLink 5.7,2013-02-10 12:55:00,
2013-02-10 08:05:00,13.1,10.2,30.30,West,270,1.0,3.0,88,0.00,,,-99.99,WeatherLink 5.7,2013-02-10 13:05:00,
2013-02-10 08:15:00,14.8,12.1,30.31,West,270,0.0,2.0,89,0.00,,,-99.99,WeatherLink 5.7,2013-02-10 13:15:00,
2013-02-10 08:25:00,17.3,14.9,30.31,WNW,292,1.0,2.0,90,0.00,,,-99.99,WeatherLink 5.7,2013-02-10 13:25:00,
2013-02-10 08:35:00,20.5,18.5,30.31,West,270,2.0,7.0,92,0.00,,,-99.99,WeatherLink 5.7,2013-02-10 13:35:00,
2013-02-10 08:45:00,23.6,21.6,30.31,WNW,292,3.0,8.0,92,0.00,,,-99.99,WeatherLink 5.7,2013-02-10 13:45:00,
2013-02-10 09:00:00,26.1,24.4,30.31,NW,315,1.0,3.0,93,0.00,,,-99.99,WeatherLink 5.7,2013-02-10 14:00:00,
2013-02-10 09:10:00,29.0,27.2,30.31,West,270,2.0,5.0,93,0.00,,,-99.99,WeatherLink 5.7,2013-02-10 14:10:00,
2013-02-10 09:15:00,29.4,27.6,30.31,WNW,292,3.0,6.0,93,0.00,,,-99.99,WeatherLink 5.7,2013-02-10 14:15:00,
2013-02-10 09:25:00,30.1,28.6,30.31,NW,315,2.0,6.0,94,0.00,,,-99.99,WeatherLink 5.7,2013-02-10 14:25:00,
2013-02-10 09:40:00,30.4,28.9,30.31,West,270,4.0,8.0,94,0.00,,,-99.99,WeatherLink 5.7,2013-02-10 14:40:00,
2013-02-10 09:50:00,31.0,29.5,30.32,NW,315,3.0,8.0,94,0.00,,,-99.99,WeatherLink 5.7,2013-02-10 14:50:00,
2013-02-10 09:55:00,31.2,29.7,30.32,NNW,337,4.0,8.0,94,0.00,,,-99.99,WeatherLink 5.7,2013-02-10 14:55:00,
2013-02-10 10:00:00,31.0,29.5,30.32,West,270,3.0,8.0,94,0.00,,,-99.99,WeatherLink 5.7,2013-02-10 15:00:00,
2013-02-10 10:11:00,31.3,29.8,30.32,NW,315,3.0,7.0,94,0.00,,,-99.99,WeatherLink 5.7,2013-02-10 15:11:00,
2013-02-10 10:20:00,31.6,30.1,30.32,NW,315,2.0,7.0,94,0.00,,,-99.99,WeatherLink 5.7,2013-02-10 15:20:00,
2013-02-10 10:25:00,31.6,30.1,30.32,North,0,2.0,6.0,94,0.00,,,-99.99,WeatherLink 5.7,2013-02-10 15:25:00,
2013-02-10 10:35:00,31.8,30.3,30.32,North,0,3.0,7.0,94,0.00,,,-99.99,WeatherLink 5.7,2013-02-10 15:35:00,
2013-02-10 10:40:00,31.9,30.6,30.32,West,270,3.0,8.0,95,0.00,,,-99.99,WeatherLink 5.7,2013-02-10 15:40:00,
2013-02-10 10:50:00,31.9,30.6,30.32,North,0,1.0,5.0,95,0.00,,,-99.99,WeatherLink 5.7,2013-02-10 15:50:00,
2013-02-10 10:55:00,32.1,30.6,30.32,NW,315,2.0,8.0,94,0.00,,,-99.99,WeatherLink 5.7,2013-02-10 15:55:00,
2013-02-10 11:00:00,32.1,30.8,30.32,NNE,22,2.0,6.0,95,0.00,,,-99.99,WeatherLink 5.7,2013-02-10 16:00:00,
2013-02-10 11:10:00,32.1,30.8,30.32,NNE,22,2.0,8.0,95,0.00,,,-99.99,WeatherLink 5.7,2013-02-10 16:10:00,
2013-02-10 11:20:00,32.4,31.4,30.32,West,270,2.0,7.0,96,0.00,,,-99.99,WeatherLink 5.7,2013-02-10 16:20:00,
2013-02-10 11:30:00,32.4,31.4,30.32,West,270,2.0,3.0,96,0.00,,,-99.99,WeatherLink 5.7,2013-02-10 16:30:00,
2013-02-10 11:40:00,32.5,31.5,30.32,NW,315,2.0,4.0,96,0.00,,,-99.99,WeatherLink 5.7,2013-02-10 16:40:00,
2013-02-10 11:45:00,32.7,31.7,30.32,North,0,2.0,5.0,96,0.00,,,-99.99,WeatherLink 5.7,2013-02-10 16:45:00,
2013-02-10 11:50:00,32.7,31.7,30.32,West,270,1.0,3.0,96,0.00,,,-99.99,WeatherLink 5.7,2013-02-10 16:50:00,
2013-02-10 12:00:00,32.7,31.7,30.32,NW,315,1.0,8.0,96,0.00,,,-99.99,WeatherLink 5.7,2013-02-10 17:00:00,
2013-02-10 12:10:00,32.9,31.9,30.32,West,270,1.0,4.0,96,0.00,,,-99.99,WeatherLink 5.7,2013-02-10 17:10:00,
2013-02-10 12:20:00,32.8,31.8,30.31,WSW,247,3.0,12.0,96,0.00,,,-99.99,WeatherLink 5.7,2013-02-10 17:20:00,
2013-02-10 12:26:00,32.8,31.8,30.31,West,270,1.0,5.0,96,0.00,,,-99.99,WeatherLink 5.7,2013-02-10 17:26:00,
2013-02-10 12:35:00,32.8,31.8,30.30,West,270,3.0,7.0,96,0.00,,,-99.99,WeatherLink 5.7,2013-02-10 17:35:00,
2013-02-10 12:40:00,32.8,31.8,30.30,West,270,3.0,7.0,96,0.00,,,-99.99,WeatherLink 5.7,2013-02-10 17:40:00,
2013-02-10 12:50:00,32.8,31.8,30.30,WNW,292,1.0,3.0,96,0.00,,,-99.99,WeatherLink 5.7,2013-02-10 17:50:00,
2013-02-10 12:55:00,32.8,31.8,30.30,NNW,337,2.0,6.0,96,0.00,,,-99.99,WeatherLink 5.7,2013-02-10 17:55:00,
2013-02-10 13:05:00,32.8,31.8,30.29,North,0,2.0,5.0,96,0.00,,,-99.99,WeatherLink 5.7,2013-02-10 18:05:00,
2013-02-10 13:15:00,32.8,32.0,30.29,North,0,1.0,3.0,97,0.00,,,-99.99,WeatherLink 5.7,2013-02-10 18:15:00,
2013-02-10 13:25:00,32.9,32.1,30.28,West,270,2.0,5.0,97,0.00,,,-99.99,WeatherLink 5.7,2013-02-10 18:25:00,
2013-02-10 13:31:00,32.9,32.1,30.27,West,270,2.0,4.0,97,0.00,,,-99.99,WeatherLink 5.7,2013-02-10 18:31:00,
2013-02-10 13:35:00,32.9,32.1,30.27,West,270,1.0,3.0,97,0.00,,,-99.99,WeatherLink 5.7,2013-02-10 18:35:00,
2013-02-10 13:40:00,32.9,32.1,30.27,WSW,247,1.0,3.0,97,0.00,,,-99.99,WeatherLink 5.7,2013-02-10 18:40:00,
2013-02-10 13:45:00,32.9,32.1,30.27,West,270,2.0,5.0,97,0.00,,,-99.99,WeatherLink 5.7,2013-02-10 18:45:00,
2013-02-10 13:55:00,32.9,32.4,30.27,NNW,337,1.0,3.0,98,0.00,,,-99.99,WeatherLink 5.7,2013-02-10 18:55:00,
2013-02-10 14:05:00,32.9,32.4,30.26,North,0,2.0,6.0,98,0.00,,,-99.99,WeatherLink 5.7,2013-02-10 19:05:00,
2013-02-10 14:15:00,32.7,32.2,30.26,NNE,22,3.0,5.0,98,0.00,,,-99.99,WeatherLink 5.7,2013-02-10 19:15:00,
2013-02-10 14:30:00,33.1,32.6,30.26,NNW,337,1.0,3.0,98,0.00,,,-99.99,WeatherLink 5.7,2013-02-10 19:30:00,
2013-02-10 14:36:00,33.1,32.3,30.26,NE,45,0.0,3.0,97,0.00,,,-99.99,WeatherLink 5.7,2013-02-10 19:36:00,
2013-02-10 14:45:00,32.9,32.1,30.26,NW,315,0.0,2.0,97,0.00,,,-99.99,WeatherLink 5.7,2013-02-10 19:45:00,
2013-02-10 14:55:00,33.1,32.3,30.26,WNW,292,1.0,3.0,97,0.00,,,-99.99,WeatherLink 5.7,2013-02-10 19:55:00,
2013-02-10 15:05:00,33.1,32.3,30.27,WNW,292,1.0,3.0,97,0.00,,,-99.99,WeatherLink 5.7,2013-02-10 20:05:00,
2013-02-10 15:10:00,32.9,32.1,30.27,WNW,292,0.0,2.0,97,0.00,,,-99.99,WeatherLink 5.7,2013-02-10 20:10:00,
2013-02-10 15:21:00,32.9,32.1,30.27,WNW,292,1.0,3.0,97,0.00,,,-99.99,WeatherLink 5.7,2013-02-10 20:21:00,
2013-02-10 15:30:00,32.7,31.9,30.28,WSW,247,1.0,4.0,97,0.00,,,-99.99,WeatherLink 5.7,2013-02-10 20:30:00,
2013-02-10 15:35:00,32.7,31.9,30.28,West,270,1.0,2.0,97,0.00,,,-99.99,WeatherLink 5.7,2013-02-10 20:35:00,
2013-02-10 15:45:00,32.5,31.7,30.28,WNW,292,1.0,3.0,97,0.00,,,-99.99,WeatherLink 5.7,2013-02-10 20:45:00,
2013-02-10 15:50:00,32.5,31.7,30.28,NW,315,1.0,3.0,97,0.00,,,-99.99,WeatherLink 5.7,2013-02-10 20:50:00,
2013-02-10 16:00:00,32.4,31.6,30.29,NW,315,1.0,3.0,97,0.00,,,-99.99,WeatherLink 5.7,2013-02-10 21:00:00,
2013-02-10 16:11:00,32.2,31.2,30.29,NW,315,0.0,1.0,96,0.00,,,-99.99,WeatherLink 5.7,2013-02-10 21:11:00,
2013-02-10 16:20:00,32.1,31.1,30.28,NW,315,0.0,2.0,96,0.00,,,-99.99,WeatherLink 5.7,2013-02-10 21:20:00,
2013-02-10 16:30:00,31.9,30.9,30.28,North,-999,0.0,0.0,96,0.00,,,-99.99,WeatherLink 5.7,2013-02-10 21:30:00,
2013-02-10 16:40:00,31.9,30.9,30.28,North,-999,0.0,0.0,96,0.00,,,-99.99,WeatherLink 5.7,2013-02-10 21:40:00,
2013-02-10 16:45:00,31.8,30.8,30.27,North,-999,0.0,0.0,96,0.00,,,-99.99,WeatherLink 5.7,2013-02-10 21:45:00,
2013-02-10 16:55:00,31.6,30.6,30.27,North,-999,0.0,0.0,96,0.00,,,-99.99,WeatherLink 5.7,2013-02-10 21:55:00,
2013-02-10 17:05:00,31.6,30.3,30.27,North,-999,0.0,0.0,95,0.00,,,-99.99,WeatherLink 5.7,2013-02-10 22:05:00,
2013-02-10 17:15:00,31.3,29.2,30.29,North,-999,0.0,0.0,92,0.00,,,-99.99,WeatherLink 5.7,2013-02-10 22:15:00,
2013-02-10 17:25:00,31.2,28.9,30.29,North,-999,0.0,0.0,91,0.00,,,-99.99,WeatherLink 5.7,2013-02-10 22:25:00,
2013-02-10 17:30:00,31.2,28.6,30.29,North,-999,0.0,0.0,90,0.00,,,-99.99,WeatherLink 5.7,2013-02-10 22:30:00,
2013-02-10 17:40:00,31.0,28.7,30.29,North,-999,0.0,0.0,91,0.00,,,-99.99,WeatherLink 5.7,2013-02-10 22:40:00,
2013-02-10 17:50:00,30.6,27.7,30.29,North,-999,0.0,0.0,89,0.00,,,-99.99,WeatherLink 5.7,2013-02-10 22:50:00,
2013-02-10 18:00:00,30.3,27.4,30.29,North,-999,0.0,0.0,89,0.00,,,-99.99,WeatherLink 5.7,2013-02-10 23:00:00,
2013-02-10 18:05:00,30.1,27.0,30.29,North,-999,0.0,0.0,88,0.00,,,-99.99,WeatherLink 5.7,2013-02-10 23:05:00,
2013-02-10 18:15:00,29.7,26.6,30.29,North,-999,0.0,0.0,88,0.00,,,-99.99,WeatherLink 5.7,2013-02-10 23:15:00,
2013-02-10 18:20:00,29.1,25.4,30.29,North,-999,0.0,0.0,86,0.00,,,-99.99,WeatherLink 5.7,2013-02-10 23:20:00,
2013-02-10 18:30:00,28.4,24.2,30.29,North,-999,0.0,0.0,84,0.00,,,-99.99,WeatherLink 5.7,2013-02-10 23:30:00,
2013-02-10 18:40:00,27.8,23.3,30.29,North,-999,0.0,0.0,83,0.00,,,-99.99,WeatherLink 5.7,2013-02-10 23:40:00,
2013-02-10 18:50:00,27.6,22.8,30.29,North,-999,0.0,0.0,82,0.00,,,-99.99,WeatherLink 5.7,2013-02-10 23:50:00,
2013-02-10 19:00:00,27.5,23.0,30.29,North,-999,0.0,0.0,83,0.00,,,-99.99,WeatherLink 5.7,2013-02-11 00:00:00,
2013-02-10 19:05:00,27.0,23.1,30.30,NW,315,1.0,2.0,85,0.00,,,-99.99,WeatherLink 5.7,2013-02-11 00:05:00,
2013-02-10 19:15:00,26.3,21.6,30.30,NW,315,0.0,2.0,82,0.00,,,-99.99,WeatherLink 5.7,2013-02-11 00:15:00,
2013-02-10 19:20:00,25.6,21.4,30.30,NW,315,0.0,1.0,84,0.00,,,-99.99,WeatherLink 5.7,2013-02-11 00:20:00,
2013-02-10 19:30:00,25.0,20.3,30.30,NW,315,1.0,1.0,82,0.00,,,-99.99,WeatherLink 5.7,2013-02-11 00:30:00,
2013-02-10 19:35:00,24.8,20.7,30.30,North,-999,0.0,0.0,84,0.00,,,-99.99,WeatherLink 5.7,2013-02-11 00:35:00,
2013-02-10 19:45:00,24.4,20.5,30.30,North,-999,0.0,0.0,85,0.00,,,-99.99,WeatherLink 5.7,2013-02-11 00:45:00,
2013-02-10 19:55:00,24.1,20.2,30.30,North,-999,0.0,0.0,85,0.00,,,-99.99,WeatherLink 5.7,2013-02-11 00:55:00,
2013-02-10 20:00:00,23.6,19.8,30.30,North,-999,0.0,0.0,85,0.00,,,-99.99,WeatherLink 5.7,2013-02-11 01:00:00,
2013-02-10 20:10:00,23.2,19.1,30.30,North,-999,0.0,0.0,84,0.00,,,-99.99,WeatherLink 5.7,2013-02-11 01:10:00,
2013-02-10 20:20:00,22.7,17.7,30.29,NW,315,0.0,1.0,81,0.00,,,-99.99,WeatherLink 5.7,2013-02-11 01:20:00,
2013-02-10 20:25:00,22.4,17.5,30.29,NW,315,0.0,1.0,81,0.00,,,-99.99,WeatherLink 5.7,2013-02-11 01:25:00,
2013-02-10 20:30:00,22.4,18.0,30.29,North,-999,0.0,0.0,83,0.00,,,-99.99,WeatherLink 5.7,2013-02-11 01:30:00,
2013-02-10 20:40:00,22.4,18.3,30.29,North,-999,0.0,0.0,84,0.00,,,-99.99,WeatherLink 5.7,2013-02-11 01:40:00,
2013-02-10 20:45:00,21.9,17.5,30.29,NW,315,0.0,2.0,83,0.00,,,-99.99,WeatherLink 5.7,2013-02-11 01:45:00,
2013-02-10 20:55:00,21.3,16.4,30.29,NW,315,1.0,2.0,81,0.00,,,-99.99,WeatherLink 5.7,2013-02-11 01:55:00,
2013-02-10 21:05:00,21.3,16.7,30.30,NW,315,0.0,1.0,82,0.00,,,-99.99,WeatherLink 5.7,2013-02-11 02:05:00,
2013-02-10 21:10:00,21.3,16.7,30.30,NW,315,0.0,1.0,82,0.00,,,-99.99,WeatherLink 5.7,2013-02-11 02:10:00,
2013-02-10 21:15:00,21.1,15.9,30.29,NW,315,0.0,1.0,80,0.00,,,-99.99,WeatherLink 5.7,2013-02-11 02:15:00,
2013-02-10 21:25:00,20.6,15.4,30.29,North,-999,0.0,0.0,80,0.00,,,-99.99,WeatherLink 5.7,2013-02-11 02:25:00,
2013-02-10 21:30:00,20.6,16.0,30.28,North,-999,0.0,0.0,82,0.00,,,-99.99,WeatherLink 5.7,2013-02-11 02:30:00,
2013-02-10 21:40:00,20.5,16.2,30.28,North,-999,0.0,0.0,83,0.00,,,-99.99,WeatherLink 5.7,2013-02-11 02:40:00,
2013-02-10 21:45:00,20.3,15.7,30.28,North,-999,0.0,0.0,82,0.00,,,-99.99,WeatherLink 5.7,2013-02-11 02:45:00,
2013-02-10 21:55:00,20.2,15.9,30.28,North,-999,0.0,0.0,83,0.00,,,-99.99,WeatherLink 5.7,2013-02-11 02:55:00,
2013-02-10 22:00:00,19.7,14.8,30.28,North,-999,0.0,0.0,81,0.00,,,-99.99,WeatherLink 5.7,2013-02-11 03:00:00,
2013-02-10 22:10:00,19.5,14.6,30.28,North,-999,0.0,0.0,81,0.00,,,-99.99,WeatherLink 5.7,2013-02-11 03:10:00,
2013-02-10 22:15:00,19.5,14.9,30.28,North,-999,0.0,0.0,82,0.00,,,-99.99,WeatherLink 5.7,2013-02-11 03:15:00,
2013-02-10 22:25:00,19.5,15.2,30.28,North,-999,0.0,0.0,83,0.00,,,-99.99,WeatherLink 5.7,2013-02-11 03:25:00,
2013-02-10 22:35:00,19.2,14.6,30.28,North,-999,0.0,0.0,82,0.00,,,-99.99,WeatherLink 5.7,2013-02-11 03:35:00,
2013-02-10 22:45:00,19.2,14.3,30.28,North,-999,0.0,0.0,81,0.00,,,-99.99,WeatherLink 5.7,2013-02-11 03:45:00,
2013-02-10 22:50:00,18.9,14.0,30.28,North,-999,0.0,0.0,81,0.00,,,-99.99,WeatherLink 5.7,2013-02-11 03:50:00,
2013-02-10 23:00:00,18.8,14.2,30.28,North,-999,0.0,0.0,82,0.00,,,-99.99,WeatherLink 5.7,2013-02-11 04:00:00,
2013-02-10 23:10:00,18.4,13.5,30.28,North,-999,0.0,0.0,81,0.00,,,-99.99,WeatherLink 5.7,2013-02-11 04:10:00,
2013-02-10 23:20:00,18.3,14.0,30.28,North,-999,0.0,0.0,83,0.00,,,-99.99,WeatherLink 5.7,2013-02-11 04:20:00,
2013-02-10 23:25:00,18.3,13.4,30.28,North,-999,0.0,0.0,81,0.00,,,-99.99,WeatherLink 5.7,2013-02-11 04:25:00,
2013-02-10 23:35:00,18.3,13.4,30.28,North,-999,0.0,0.0,81,0.00,,,-99.99,WeatherLink 5.7,2013-02-11 04:35:00,
2013-02-10 23:45:00,18.0,12.9,30.28,North,-999,0.0,0.0,80,0.00,,,-99.99,WeatherLink 5.7,2013-02-11 04:45:00,
2013-02-10 23:50:00,17.8,12.4,30.28,North,-999,0.0,0.0,79,0.00,,,-99.99,WeatherLink 5.7,2013-02-11 04:50:00,